Location: Burera
(21.3780°N, 81.9534°E)
Time: 11:15:24
(UTC+00:00)

Cosmos 1328 Rocket - Pass Details

Date: 13 August 2020
Orbit: 602 x 626 km, 82.5° (Epoch: 22 September)

Event Time Altitude Azimuth Distance (km) Brightness Sun altitude
Rises 13:36:21 0° 352° (N) 2,900 7.4 -8.1°
Reaches altitude 10° 13:38:35 10° 350° (N) 1,994 6.6 -8.6°
Maximum altitude 13:42:59 73° 267° (W) 655 3.9 -9.5°
Drops below altitude 10° 13:47:23 10° 182° (S) 1,991 6.0 -10.5°
Sets 13:49:36 0° 180° (S) 2,894 6.8 -11.0°
